Port Aransas, TX

3:51 AM CDT on May 28, 2018 (GMT -0500)
Port Aransas

Weather History for KRAS - July, 2013

Change the Weather History Date:

Friday, July 26, 2013

  Actual Average (KNGP) Record (KNGP)
Temperature  
Mean Temperature 84 °F -  
Max Temperature 88 °F 89 °F 95 °F (2001)
Min Temperature 81 °F 76 °F 77 °F (2007)
Cooling Degree Days 20    
Growing Degree Days 34 (Base 50)    
Moisture  
Dew Point 77 °F    
Average Humidity 78    
Maximum Humidity 85    
Minimum Humidity 70    
Precipitation  
Precipitation 0.00 in - - ()
Sea Level Pressure  
Sea Level Pressure 29.98 in    
Wind  
Wind Speed 15 mph (South)    
Max Wind Speed 21 mph    
Max Gust Speed 30 mph    
Visibility 10 miles    
Events      
Averages and records for this station are not official NWS values.
T = Trace of Precipitation, MM = Missing Value Source: NWS Daily Summary

Daily Weather History Graph

Daily Weather History Graph

Search for Another Location

Airport or City:

Astronomy

Jul. 26, 2013 Rise Set
Actual Time 6:48 AM CDT 8:21 PM CDT
Civil Twilight 6:22 AM CDT 8:46 PM CDT
Nautical Twilight 5:51 AM CDT 9:17 PM CDT
Astronomical Twilight 5:19 AM CDT 9:49 PM CDT
Moon 11:08 PM CDT (7/26) 10:56 AM CDT (7/26)
Length of Visible Light 14h 24m
Length of Day
13h 33m
Waning Gibbous, 80% of the Moon is Illuminated
Jul 26
Waning Gibbous
Jul 29
Last Quarter
Aug 6
New
Aug 14
First Quarter
Aug 20
Full

Hourly Weather History & Observations

Time (CDT) Temp. Heat Index Dew Point Humidity Pressure Visibility Wind Dir Wind Speed Gust Speed Precip Events Conditions
12:15 AM 82.4 °F 90.3 °F 76.3 °F 82% 30.02 in 10.0 mi South 15.0 mph 20.7 mph N/A   Scattered Clouds
12:35 AM 82.0 °F 88.9 °F 75.4 °F 80% 30.02 in 10.0 mi South 12.7 mph 19.6 mph N/A   Scattered Clouds
12:55 AM 82.2 °F 89.9 °F 76.3 °F 82% 30.02 in 10.0 mi South 13.8 mph 20.7 mph N/A   Scattered Clouds
1:15 AM 81.9 °F 89.2 °F 76.3 °F 83% 30.01 in 10.0 mi South 12.7 mph - N/A   Scattered Clouds
1:35 AM 81.9 °F 88.9 °F 75.9 °F 82% 30.01 in 10.0 mi South 12.7 mph - N/A   Scattered Clouds
1:55 AM 81.9 °F 88.7 °F 75.6 °F 81% 30.01 in 10.0 mi South 17.3 mph 21.9 mph N/A   Scattered Clouds
2:15 AM 81.7 °F 88.5 °F 75.7 °F 82% 30.01 in 10.0 mi South 15.0 mph 21.9 mph N/A   Scattered Clouds
2:35 AM 81.7 °F 89.0 °F 76.3 °F 84% 30.01 in 10.0 mi South 16.1 mph 23.0 mph N/A   Mostly Cloudy
2:55 AM 81.5 °F 88.3 °F 75.9 °F 83% 30.01 in 10.0 mi South 16.1 mph - N/A   Mostly Cloudy
3:15 AM 81.5 °F 88.0 °F 75.6 °F 82% 30.01 in 10.0 mi South 13.8 mph - N/A   Scattered Clouds
3:35 AM 81.5 °F 88.3 °F 75.9 °F 83% 30.00 in 10.0 mi South 15.0 mph 19.6 mph N/A   Mostly Cloudy
3:55 AM 81.5 °F 87.8 °F 75.0 °F 81% 30.00 in 10.0 mi South 13.8 mph - N/A   Scattered Clouds
4:15 AM 81.1 °F 87.0 °F 74.8 °F 81% 30.00 in 10.0 mi South 17.3 mph 20.7 mph N/A   Scattered Clouds
4:35 AM 81.5 °F 87.6 °F 74.8 °F 80% 29.99 in 10.0 mi South 17.3 mph 23.0 mph N/A   Scattered Clouds
4:55 AM 81.5 °F 87.8 °F 75.0 °F 81% 29.99 in 10.0 mi South 16.1 mph 23.0 mph N/A   Scattered Clouds
5:15 AM 81.5 °F 87.8 °F 75.2 °F 81% 29.99 in 10.0 mi South 13.8 mph 26.5 mph N/A   Scattered Clouds
5:35 AM 81.3 °F 87.6 °F 75.2 °F 82% 29.99 in 10.0 mi SSW 12.7 mph - N/A   Mostly Cloudy
5:55 AM 81.1 °F 87.4 °F 75.4 °F 83% 30.00 in 10.0 mi SSW 15.0 mph 19.6 mph N/A   Mostly Cloudy
6:15 AM 81.1 °F 87.8 °F 76.1 °F 85% 30.00 in 10.0 mi South 13.8 mph 18.4 mph N/A   Mostly Cloudy
6:35 AM 81.1 °F 87.6 °F 75.9 °F 84% 30.00 in 10.0 mi South 16.1 mph - N/A   Mostly Cloudy
6:55 AM 81.1 °F 87.8 °F 76.1 °F 85% 30.00 in 10.0 mi South 10.4 mph - N/A   Mostly Cloudy
7:15 AM 81.5 °F 88.3 °F 75.9 °F 83% 30.00 in 10.0 mi South 15.0 mph 20.7 mph N/A   Mostly Cloudy
7:35 AM 81.7 °F 88.7 °F 76.1 °F 83% 30.00 in 10.0 mi South 13.8 mph - N/A   Mostly Cloudy
7:55 AM 82.4 °F 90.1 °F 76.1 °F 81% 30.01 in 10.0 mi South 16.1 mph 21.9 mph N/A   Mostly Cloudy
8:15 AM 82.8 °F 90.7 °F 76.1 °F 80% 30.01 in 10.0 mi South 16.1 mph - N/A   Mostly Cloudy
8:35 AM 83.3 °F 91.8 °F 76.1 °F 79% 30.02 in 10.0 mi South 13.8 mph - N/A   Mostly Cloudy
8:55 AM 84.4 °F 93.9 °F 76.5 °F 77% 30.02 in 10.0 mi South 13.8 mph - N/A   Mostly Cloudy
9:15 AM 85.3 °F 95.4 °F 76.5 °F 75% 30.02 in 10.0 mi South 15.0 mph 21.9 mph N/A   Overcast
9:35 AM 85.1 °F 94.9 °F 76.3 °F 75% 30.03 in 10.0 mi South 13.8 mph 20.7 mph N/A   Overcast
9:55 AM 85.5 °F 95.4 °F 76.3 °F 74% 30.04 in 10.0 mi South 13.8 mph - N/A   Mostly Cloudy
10:15 AM 86.0 °F 96.4 °F 76.6 °F 73% 30.04 in 10.0 mi South 11.5 mph - N/A   Mostly Cloudy
10:35 AM 86.2 °F 97.4 °F 77.0 °F 74% 30.04 in 10.0 mi South 12.7 mph - N/A   Scattered Clouds
10:55 AM 86.7 °F 98.3 °F 77.0 °F 73% 30.02 in 10.0 mi South 13.8 mph 19.6 mph N/A   Scattered Clouds
11:15 AM 87.3 °F 98.8 °F 77.0 °F 71% 30.03 in 10.0 mi South 16.1 mph - N/A   Mostly Cloudy
11:35 AM 87.4 °F 99.2 °F 77.2 °F 71% 30.03 in 10.0 mi South 15.0 mph 20.7 mph N/A   Mostly Cloudy
11:55 AM 87.3 °F 99.3 °F 77.2 °F 72% 30.03 in 10.0 mi South 13.8 mph - N/A   Scattered Clouds
12:15 PM 88.0 °F 100.7 °F 77.4 °F 71% 30.02 in 10.0 mi South 12.7 mph 19.6 mph N/A   Scattered Clouds
12:35 PM 88.3 °F 101.1 °F 77.5 °F 70% 30.02 in 10.0 mi South 16.1 mph 19.6 mph N/A   Scattered Clouds
12:55 PM 88.0 °F 100.7 °F 77.5 °F 71% 30.01 in 10.0 mi South 15.0 mph 20.7 mph N/A   Scattered Clouds
1:15 PM 88.2 °F 101.2 °F 77.7 °F 71% 30.01 in 10.0 mi South 13.8 mph 19.6 mph N/A   Scattered Clouds
1:35 PM 88.2 °F 101.2 °F 77.5 °F 71% 30.00 in 10.0 mi South 15.0 mph 18.4 mph N/A   Scattered Clouds
1:55 PM 87.8 °F 100.8 °F 77.7 °F 72% 30.00 in 10.0 mi SSE 15.0 mph 19.6 mph N/A   Scattered Clouds
2:15 PM 87.8 °F 100.2 °F 77.4 °F 71% 29.99 in 10.0 mi South 13.8 mph 18.4 mph N/A   Scattered Clouds
2:35 PM 87.4 °F 99.8 °F 77.5 °F 72% 29.99 in 10.0 mi SSE 13.8 mph 18.4 mph N/A   Scattered Clouds
2:55 PM 87.6 °F 100.3 °F 77.7 °F 72% 29.98 in 10.0 mi SSE 16.1 mph 19.6 mph N/A   Scattered Clouds
3:15 PM 87.8 °F 101.3 °F 78.1 °F 73% 29.98 in 10.0 mi SSE 13.8 mph 21.9 mph N/A   Clear
3:35 PM 87.3 °F 100.4 °F 77.9 °F 74% 29.96 in 10.0 mi SSE 17.3 mph 21.9 mph N/A   Clear
3:55 PM 86.9 °F 99.3 °F 77.9 °F 74% 29.97 in 10.0 mi SSE 15.0 mph 20.7 mph N/A   Clear
4:15 PM 87.3 °F 100.4 °F 77.9 °F 74% 29.96 in 10.0 mi SSE 13.8 mph 21.9 mph N/A   Clear
4:35 PM 86.4 °F 97.8 °F 77.4 °F 74% 29.96 in 10.0 mi SSE 16.1 mph 21.9 mph N/A   Clear
4:55 PM 86.9 °F 99.3 °F 77.5 °F 74% 29.95 in 10.0 mi SSE 13.8 mph 20.7 mph N/A   Clear
5:15 PM 86.0 °F 97.3 °F 77.4 °F 75% 29.95 in 10.0 mi SSE 15.0 mph 23.0 mph N/A   Clear
5:35 PM 86.0 °F 97.8 °F 77.5 °F 76% 29.95 in 10.0 mi SSE 16.1 mph 21.9 mph N/A   Clear
5:55 PM 85.1 °F 95.8 °F 77.2 °F 77% 29.94 in 1.0 mi SSE 17.3 mph 23.0 mph N/A   Haze
6:15 PM 84.7 °F 95.2 °F 77.2 °F 78% 29.93 in 10.0 mi SSE 17.3 mph 24.2 mph N/A   Clear
6:35 PM 85.1 °F 96.2 °F 77.5 °F 78% 29.93 in 10.0 mi SSE 17.3 mph 24.2 mph N/A   Scattered Clouds
6:55 PM 84.7 °F 95.2 °F 77.4 °F 78% 29.93 in 10.0 mi SSE 20.7 mph 24.2 mph N/A   Scattered Clouds
7:15 PM 84.6 °F 94.7 °F 77.0 °F 78% 29.92 in 10.0 mi SSE 20.7 mph 27.6 mph N/A   Scattered Clouds
7:35 PM 83.8 °F 93.2 °F 76.8 °F 79% 29.92 in 10.0 mi South 16.1 mph 29.9 mph N/A   Clear
7:55 PM 83.3 °F 92.4 °F 76.8 °F 81% 29.91 in 10.0 mi South 20.7 mph 26.5 mph N/A   Clear
8:15 PM 82.9 °F 91.8 °F 77.0 °F 82% 29.91 in 10.0 mi SSE 18.4 mph 26.5 mph N/A   Scattered Clouds
8:35 PM 82.8 °F 91.0 °F 76.5 °F 81% 29.92 in 10.0 mi South 19.6 mph 28.8 mph N/A   Scattered Clouds
8:55 PM 82.8 °F 90.7 °F 76.1 °F 80% 29.93 in 10.0 mi South 18.4 mph 29.9 mph N/A   Scattered Clouds
9:15 PM 82.6 °F 90.2 °F 75.9 °F 80% 29.93 in 10.0 mi South 20.7 mph 27.6 mph N/A   Clear
9:35 PM 82.6 °F 90.5 °F 76.1 °F 81% 29.93 in 10.0 mi South 18.4 mph 25.3 mph N/A   Scattered Clouds
9:55 PM 82.6 °F 90.5 °F 76.1 °F 81% 29.94 in 10.0 mi South 20.7 mph 27.6 mph N/A   Scattered Clouds
10:15 PM 82.6 °F 90.2 °F 75.7 °F 80% 29.95 in 10.0 mi South 20.7 mph 28.8 mph N/A   Scattered Clouds
10:35 PM 82.4 °F 90.1 °F 76.1 °F 81% 29.95 in 10.0 mi South 15.0 mph 24.2 mph N/A   Clear
10:55 PM 82.4 °F 90.3 °F 76.5 °F 82% 29.95 in 10.0 mi South 16.1 mph 24.2 mph N/A   Clear
11:15 PM 82.4 °F 90.9 °F 77.0 °F 84% 29.96 in 10.0 mi South 17.3 mph 23.0 mph N/A   Scattered Clouds
11:35 PM 82.2 °F 90.1 °F 76.6 °F 83% 29.96 in 10.0 mi South 17.3 mph 25.3 mph N/A   Scattered Clouds
11:55 PM 82.0 °F 89.7 °F 76.5 °F 83% 29.96 in 10.0 mi South 18.4 mph 26.5 mph N/A   Clear